Regional Weather Roundup
Issued by NWS

Home | Current Version | Previous Version | Graphics & Text | Print | Product List | Glossary On
Versions: 1 2 3 4 5 6 7 8 9 10 11 12 13 14 15 16 17 18 19 20 21 22 23 24 25 26 27 28 29 30 31 32 33 34 35 36 37 38 39 40 41 42 43 44 45 46 47 48 49 50
000
ASUS43 KBIS 211502
RWRND

NORTH DAKOTA REGIONAL WEATHER ROUNDUP
NATIONAL WEATHER SERVICE BISMARCK ND
900 AM CST SAT JAN 21 2017

NOTE: "FAIR" INDICATES FEW OR NO CLOUDS BELOW 12,000 FEET WITH NO
SIGNIFICANT WEATHER AND/OR OBSTRUCTIONS TO VISIBILITY.


NDZ001>003-009>011-017-211600-
NORTHWEST NORTH DAKOTA

CITY           SKY/WX    TMP DP  RH WIND       PRES   REMARKS
WILLISTON      CLOUDY    27  24  89 S3        29.33R
MINOT          CLOUDY    28  26  92 S3        29.32S FOG
MINOT AFB      CLOUDY    26  26  96 CALM      29.32S FOG
$$

NDZ018>021-031>035-040>046-211600-
SOUTHWEST NORTH DAKOTA

CITY           SKY/WX    TMP DP  RH WIND       PRES   REMARKS
BISMARCK       LGT SNOW  28  26  92 W6        29.35R FOG
DICKINSON      MOCLDY    26  22  84 W10       29.29R WCI  16
GARRISON         N/A     21  19  92 CALM      29.32S
HETTINGER ARPT PTCLDY    24  21  88 W9        29.33R WCI  14
$$

NDZ004>008-012>016-024-026-027-054-211600-
NORTHEAST NORTH DAKOTA

CITY           SKY/WX    TMP DP  RH WIND       PRES   REMARKS
GRAND FORKS    CLOUDY    36  32  85 SE9       29.42R
GRND FRKS AFB  CLOUDY    34  33  99 SE8       29.41S
DEVILS LAKE    FOG       33  32  96 E7        29.36S VSB 1/4
$$

NDZ022-023-025-028>030-036>039-047>053-211600-
SOUTHEAST NORTH DAKOTA

CITY           SKY/WX    TMP DP  RH WIND       PRES   REMARKS
FARGO          CLOUDY    38  34  85 CALM      29.40R
JAMESTOWN      FOG       32  32 100 SE8       29.34S VSB<1/4
$$





USA.gov is the U.S. government's official web portal to all federal, state and local government web resources and services.